Year,Month,Day,Hour,Minute,Value (Times are PST for temperature in C)
2009,05,21,00,00,8.10
2009,05,21,00,01,8.10
2009,05,21,00,02,8.10
2009,05,21,00,03,8.10
2009,05,21,00,04,8.10
2009,05,21,00,05,8.00
2009,05,21,00,06,8.00
2009,05,21,00,07,8.00
2009,05,21,00,08,8.00
2009,05,21,00,09,8.00
2009,05,21,00,10,8.00
2009,05,21,00,11,7.90
2009,05,21,00,12,7.90
2009,05,21,00,13,7.90
2009,05,21,00,14,7.90
2009,05,21,00,15,7.90
2009,05,21,00,16,7.90
2009,05,21,00,17,7.80
2009,05,21,00,18,7.80
2009,05,21,00,19,7.80
2009,05,21,00,20,7.80
2009,05,21,00,21,7.80
2009,05,21,00,22,7.80
2009,05,21,00,23,7.80
2009,05,21,00,24,7.70
2009,05,21,00,25,7.70
2009,05,21,00,26,7.70
2009,05,21,00,27,7.70
2009,05,21,00,28,7.70
2009,05,21,00,29,7.60
2009,05,21,00,30,7.60
2009,05,21,00,31,7.50
2009,05,21,00,32,7.50
2009,05,21,00,33,7.40
2009,05,21,00,34,7.40
2009,05,21,00,35,7.30
2009,05,21,00,36,7.30
2009,05,21,00,37,7.30
2009,05,21,00,38,7.20
2009,05,21,00,39,7.20
2009,05,21,00,40,7.20
2009,05,21,00,41,7.20
2009,05,21,00,42,7.20
2009,05,21,00,43,7.20
2009,05,21,00,44,7.10
2009,05,21,00,45,7.10
2009,05,21,00,46,7.10
2009,05,21,00,47,7.10
2009,05,21,00,48,7.10
2009,05,21,00,49,7.10
2009,05,21,00,50,7.10
2009,05,21,00,51,7.10
2009,05,21,00,52,7.00
2009,05,21,00,53,7.00
2009,05,21,00,54,7.00
2009,05,21,00,55,7.00
2009,05,21,00,56,7.00
2009,05,21,00,57,7.00
2009,05,21,00,58,7.00
2009,05,21,00,59,6.90
2009,05,21,01,00,6.90
2009,05,21,01,01,6.90
2009,05,21,01,02,6.90
2009,05,21,01,03,6.90
2009,05,21,01,04,6.80
2009,05,21,01,05,6.80
2009,05,21,01,06,6.80
2009,05,21,01,07,6.80
2009,05,21,01,08,6.80
2009,05,21,01,09,6.80
2009,05,21,01,10,6.80
2009,05,21,01,11,6.80
2009,05,21,01,12,6.70
2009,05,21,01,13,6.70
2009,05,21,01,14,6.70
2009,05,21,01,15,6.70
2009,05,21,01,16,6.70
2009,05,21,01,17,6.70
2009,05,21,01,18,6.70
2009,05,21,01,19,6.60
2009,05,21,01,20,6.60
2009,05,21,01,21,6.60
2009,05,21,01,22,6.60
2009,05,21,01,23,6.60
2009,05,21,01,24,6.60
2009,05,21,01,25,6.50
2009,05,21,01,26,6.50
2009,05,21,01,27,6.50
2009,05,21,01,28,6.50
2009,05,21,01,29,6.40
2009,05,21,01,30,6.40
2009,05,21,01,31,6.40
2009,05,21,01,32,6.40
2009,05,21,01,33,6.30
2009,05,21,01,34,6.30
2009,05,21,01,35,6.30
2009,05,21,01,36,6.30
2009,05,21,01,37,6.30
2009,05,21,01,38,6.30
2009,05,21,01,39,6.30
2009,05,21,01,40,6.30
2009,05,21,01,41,6.20
2009,05,21,01,42,6.20
2009,05,21,01,43,6.20
2009,05,21,01,44,6.20
2009,05,21,01,45,6.20
2009,05,21,01,46,6.20
2009,05,21,01,47,6.20
2009,05,21,01,48,6.20
2009,05,21,01,49,6.20
2009,05,21,01,50,6.20
2009,05,21,01,51,6.20
2009,05,21,01,52,6.20
2009,05,21,01,53,6.20
2009,05,21,01,54,6.20
2009,05,21,01,55,6.20
2009,05,21,01,56,6.20
2009,05,21,01,57,6.10
2009,05,21,01,58,6.10
2009,05,21,01,59,6.10
2009,05,21,02,00,6.10
2009,05,21,02,01,6.10
2009,05,21,02,02,6.10
2009,05,21,02,03,6.10
2009,05,21,02,04,6.10
2009,05,21,02,05,6.00
2009,05,21,02,06,6.00
2009,05,21,02,07,6.00
2009,05,21,02,08,6.00
2009,05,21,02,09,6.00
2009,05,21,02,10,6.00
2009,05,21,02,11,6.00
2009,05,21,02,12,6.00
2009,05,21,02,13,6.00
2009,05,21,02,14,6.00
2009,05,21,02,15,6.00
2009,05,21,02,16,5.90
2009,05,21,02,17,5.90
2009,05,21,02,18,5.90
2009,05,21,02,19,5.90
2009,05,21,02,20,5.90
2009,05,21,02,21,5.90
2009,05,21,02,22,5.90
2009,05,21,02,23,5.90
2009,05,21,02,24,5.80
2009,05,21,02,25,5.80
2009,05,21,02,26,5.80
2009,05,21,02,27,5.80
2009,05,21,02,28,5.70
2009,05,21,02,29,5.70
2009,05,21,02,30,5.70
2009,05,21,02,31,5.70
2009,05,21,02,32,5.70
2009,05,21,02,33,5.70
2009,05,21,02,34,5.70
2009,05,21,02,35,5.70
2009,05,21,02,36,5.70
2009,05,21,02,37,5.70
2009,05,21,02,38,5.70
2009,05,21,02,39,5.70
2009,05,21,02,40,5.70
2009,05,21,02,41,5.70
2009,05,21,02,42,5.70
2009,05,21,02,43,5.70
2009,05,21,02,44,5.70
2009,05,21,02,45,5.70
2009,05,21,02,46,5.70
2009,05,21,02,47,5.70
2009,05,21,02,48,5.80
2009,05,21,02,49,5.80
2009,05,21,02,50,5.80
2009,05,21,02,51,5.80
2009,05,21,02,52,5.70
2009,05,21,02,53,5.80
2009,05,21,02,54,5.70
2009,05,21,02,55,5.70
2009,05,21,02,56,5.70
2009,05,21,02,57,5.70
2009,05,21,02,58,5.70
2009,05,21,02,59,5.70
2009,05,21,03,00,5.70
2009,05,21,03,01,5.70
2009,05,21,03,02,5.70
2009,05,21,03,03,5.70
2009,05,21,03,04,5.70
2009,05,21,03,05,5.70
2009,05,21,03,06,5.70
2009,05,21,03,07,5.60
2009,05,21,03,08,5.60
2009,05,21,03,09,5.60
2009,05,21,03,10,5.60
2009,05,21,03,11,5.60
2009,05,21,03,12,5.50
2009,05,21,03,13,5.50
2009,05,21,03,14,5.50
2009,05,21,03,15,5.50
2009,05,21,03,16,5.40
2009,05,21,03,17,5.40
2009,05,21,03,18,5.40
2009,05,21,03,19,5.40
2009,05,21,03,20,5.30
2009,05,21,03,21,5.30
2009,05,21,03,22,5.30
2009,05,21,03,23,5.30
2009,05,21,03,24,5.30
2009,05,21,03,25,5.30
2009,05,21,03,26,5.30
2009,05,21,03,27,5.20
2009,05,21,03,28,5.20
2009,05,21,03,29,5.20
2009,05,21,03,30,5.20
2009,05,21,03,31,5.20
2009,05,21,03,32,5.20
2009,05,21,03,33,5.20
2009,05,21,03,34,5.10
2009,05,21,03,35,5.10
2009,05,21,03,36,5.10
2009,05,21,03,37,5.10
2009,05,21,03,38,5.10
2009,05,21,03,39,5.10
2009,05,21,03,40,5.10
2009,05,21,03,41,5.10
2009,05,21,03,42,5.10
2009,05,21,03,43,5.10
2009,05,21,03,44,5.00
2009,05,21,03,45,5.00
2009,05,21,03,46,5.00
2009,05,21,03,47,5.00
2009,05,21,03,48,5.00
2009,05,21,03,49,5.00
2009,05,21,03,50,5.00
2009,05,21,03,51,4.90
2009,05,21,03,52,4.90
2009,05,21,03,53,4.90
2009,05,21,03,54,4.90
2009,05,21,03,55,4.90
2009,05,21,03,56,4.90
2009,05,21,03,57,4.90
2009,05,21,03,58,4.80
2009,05,21,03,59,4.80
2009,05,21,04,00,4.80
2009,05,21,04,01,4.80
2009,05,21,04,02,4.80
2009,05,21,04,03,4.80
2009,05,21,04,04,4.80
2009,05,21,04,05,4.80
2009,05,21,04,06,4.80
2009,05,21,04,07,4.80
2009,05,21,04,08,4.80
2009,05,21,04,09,4.80
2009,05,21,04,10,4.80
2009,05,21,04,11,4.70
2009,05,21,04,12,4.70
2009,05,21,04,13,4.70
2009,05,21,04,14,4.70
2009,05,21,04,15,4.70
2009,05,21,04,16,4.70
2009,05,21,04,17,4.70
2009,05,21,04,18,4.70
2009,05,21,04,19,4.70
2009,05,21,04,20,4.70
2009,05,21,04,21,4.70
2009,05,21,04,22,4.70
2009,05,21,04,23,4.70
2009,05,21,04,24,4.70
2009,05,21,04,25,4.70
2009,05,21,04,26,4.70
2009,05,21,04,27,4.70
2009,05,21,04,28,4.60
2009,05,21,04,29,4.60
2009,05,21,04,30,4.60
2009,05,21,04,31,4.60
2009,05,21,04,32,4.60
2009,05,21,04,33,4.60
2009,05,21,04,34,4.60
2009,05,21,04,35,4.60
2009,05,21,04,36,4.60
2009,05,21,04,37,4.60
2009,05,21,04,38,4.60
2009,05,21,04,39,4.60
2009,05,21,04,40,4.50
2009,05,21,04,41,4.50
2009,05,21,04,42,4.50
2009,05,21,04,43,4.50
2009,05,21,04,44,4.50
2009,05,21,04,45,4.50
2009,05,21,04,46,4.40
2009,05,21,04,47,4.40
2009,05,21,04,48,4.40
2009,05,21,04,49,4.40
2009,05,21,04,50,4.40
2009,05,21,04,51,4.40
2009,05,21,04,52,4.40
2009,05,21,04,53,4.40
2009,05,21,04,54,4.40
2009,05,21,04,55,4.40
2009,05,21,04,56,4.40
2009,05,21,04,57,4.30
2009,05,21,04,58,4.30
2009,05,21,04,59,4.30
2009,05,21,05,00,4.30
2009,05,21,05,01,4.30
2009,05,21,05,02,4.30
2009,05,21,05,03,4.30
2009,05,21,05,04,4.30
2009,05,21,05,05,4.30
2009,05,21,05,06,4.30
2009,05,21,05,07,4.30
2009,05,21,05,08,4.30
2009,05,21,05,09,4.30
2009,05,21,05,10,4.30
2009,05,21,05,11,4.30
2009,05,21,05,12,4.30
2009,05,21,05,13,4.20
2009,05,21,05,14,4.20
2009,05,21,05,15,4.20
2009,05,21,05,16,4.20
2009,05,21,05,17,4.20
2009,05,21,05,18,4.20
2009,05,21,05,19,4.20
2009,05,21,05,20,4.20
2009,05,21,05,21,4.20
2009,05,21,05,22,4.20
2009,05,21,05,23,4.20
2009,05,21,05,24,4.20
2009,05,21,05,25,4.20
2009,05,21,05,26,4.10
2009,05,21,05,27,4.20
2009,05,21,05,28,4.20
2009,05,21,05,29,4.20
2009,05,21,05,30,4.20
2009,05,21,05,31,4.20
2009,05,21,05,32,4.20
2009,05,21,05,33,4.10
2009,05,21,05,34,4.10
2009,05,21,05,35,4.10
2009,05,21,05,36,4.10
2009,05,21,05,37,4.10
2009,05,21,05,38,4.10
2009,05,21,05,39,4.10
2009,05,21,05,40,4.10
2009,05,21,05,41,4.10
2009,05,21,05,42,4.10
2009,05,21,05,43,4.10
2009,05,21,05,44,4.10
2009,05,21,05,45,4.10
2009,05,21,05,46,4.10
2009,05,21,05,47,4.10
2009,05,21,05,48,4.10
2009,05,21,05,49,4.10
2009,05,21,05,50,4.10
2009,05,21,05,51,4.10
2009,05,21,05,52,4.10
2009,05,21,05,53,4.10
2009,05,21,05,54,4.20
2009,05,21,05,55,4.20
2009,05,21,05,56,4.20
2009,05,21,05,57,4.20
2009,05,21,05,58,4.20
2009,05,21,05,59,4.20
2009,05,21,06,00,4.20
2009,05,21,06,01,4.20
2009,05,21,06,02,4.20
2009,05,21,06,03,4.20
2009,05,21,06,04,4.20
2009,05,21,06,05,4.20
2009,05,21,06,06,4.20
2009,05,21,06,07,4.20
2009,05,21,06,08,4.20
2009,05,21,06,09,4.30
2009,05,21,06,10,4.30
2009,05,21,06,11,4.30
2009,05,21,06,12,4.30
2009,05,21,06,13,4.30
2009,05,21,06,14,4.40
2009,05,21,06,15,4.40
2009,05,21,06,16,4.40
2009,05,21,06,17,4.50
2009,05,21,06,18,4.50
2009,05,21,06,19,4.50
2009,05,21,06,20,4.60
2009,05,21,06,21,4.60
2009,05,21,06,22,4.60
2009,05,21,06,23,4.70
2009,05,21,06,24,4.70
2009,05,21,06,25,4.70
2009,05,21,06,26,4.80
2009,05,21,06,27,4.80
2009,05,21,06,28,4.80
2009,05,21,06,29,4.90
2009,05,21,06,30,4.90
2009,05,21,06,31,5.00
2009,05,21,06,32,5.10
2009,05,21,06,33,5.10
2009,05,21,06,34,5.20
2009,05,21,06,35,5.20
2009,05,21,06,36,5.30
2009,05,21,06,37,5.40
2009,05,21,06,38,5.40
2009,05,21,06,39,5.50
2009,05,21,06,40,5.60
2009,05,21,06,41,5.60
2009,05,21,06,42,5.70
2009,05,21,06,43,5.80
2009,05,21,06,44,5.90
2009,05,21,06,45,5.90
2009,05,21,06,46,6.00
2009,05,21,06,47,6.10
2009,05,21,06,48,6.20
2009,05,21,06,49,6.30
2009,05,21,06,50,6.30
2009,05,21,06,51,6.50
2009,05,21,06,52,6.60
2009,05,21,06,53,6.70
2009,05,21,06,54,6.80
2009,05,21,06,55,6.80
2009,05,21,06,56,6.90
2009,05,21,06,57,7.00
2009,05,21,06,58,7.10
2009,05,21,06,59,7.20
2009,05,21,07,00,7.20
2009,05,21,07,01,7.30
2009,05,21,07,02,7.40
2009,05,21,07,03,7.50
2009,05,21,07,04,7.60
2009,05,21,07,05,7.70
2009,05,21,07,06,7.80
2009,05,21,07,07,7.90
2009,05,21,07,08,8.00
2009,05,21,07,09,8.10
2009,05,21,07,10,8.20
2009,05,21,07,11,8.40
2009,05,21,07,12,8.50
2009,05,21,07,13,8.60
2009,05,21,07,14,8.70
2009,05,21,07,15,8.90
2009,05,21,07,16,9.00
2009,05,21,07,17,9.10
2009,05,21,07,18,9.20
2009,05,21,07,19,9.20
2009,05,21,07,20,9.40
2009,05,21,07,21,9.50
2009,05,21,07,22,9.60
2009,05,21,07,23,9.70
2009,05,21,07,24,9.80
2009,05,21,07,25,9.90
2009,05,21,07,26,10.00
2009,05,21,07,27,10.10
2009,05,21,07,28,10.10
2009,05,21,07,29,10.20
2009,05,21,07,30,10.20
2009,05,21,07,31,10.30
2009,05,21,07,32,10.30
2009,05,21,07,33,10.40
2009,05,21,07,34,10.40
2009,05,21,07,35,10.50
2009,05,21,07,36,10.50
2009,05,21,07,37,10.60
2009,05,21,07,38,10.70
2009,05,21,07,39,10.70
2009,05,21,07,40,10.70
2009,05,21,07,41,10.80
2009,05,21,07,42,10.80
2009,05,21,07,43,10.90
2009,05,21,07,44,10.90
2009,05,21,07,45,11.00
2009,05,21,07,46,11.00
2009,05,21,07,47,11.10
2009,05,21,07,48,11.10
2009,05,21,07,49,11.10
2009,05,21,07,50,11.20
2009,05,21,07,51,11.20
2009,05,21,07,52,11.20
2009,05,21,07,53,11.20
2009,05,21,07,54,11.20
2009,05,21,07,55,11.20
2009,05,21,07,56,11.30
2009,05,21,07,57,11.30
2009,05,21,07,58,11.40
2009,05,21,07,59,11.40
2009,05,21,08,00,11.40
2009,05,21,08,01,11.30
2009,05,21,08,02,11.30
2009,05,21,08,03,11.30
2009,05,21,08,04,11.30
2009,05,21,08,05,11.30
2009,05,21,08,06,11.30
2009,05,21,08,07,11.30
2009,05,21,08,08,11.40
2009,05,21,08,09,11.40
2009,05,21,08,10,11.40
2009,05,21,08,11,11.50
2009,05,21,08,12,11.50
2009,05,21,08,13,11.60
2009,05,21,08,14,11.70
2009,05,21,08,15,11.70
2009,05,21,08,16,11.80
2009,05,21,08,17,11.80
2009,05,21,08,18,11.80
2009,05,21,08,19,11.90
2009,05,21,08,20,12.00
2009,05,21,08,21,12.00
2009,05,21,08,22,12.00
2009,05,21,08,23,12.00
2009,05,21,08,24,12.00
2009,05,21,08,25,11.90
2009,05,21,08,26,11.80
2009,05,21,08,27,11.80
2009,05,21,08,28,11.80
2009,05,21,08,29,11.80
2009,05,21,08,30,11.80
2009,05,21,08,31,11.80
2009,05,21,08,32,11.80
2009,05,21,08,33,11.90
2009,05,21,08,34,12.00
2009,05,21,08,35,12.00
2009,05,21,08,36,12.10
2009,05,21,08,37,12.20
2009,05,21,08,38,12.20
2009,05,21,08,39,12.30
2009,05,21,08,40,12.30
2009,05,21,08,41,12.40
2009,05,21,08,42,12.40
2009,05,21,08,43,12.40
2009,05,21,08,44,12.40
2009,05,21,08,45,12.50
2009,05,21,08,46,12.50
2009,05,21,08,47,12.50
2009,05,21,08,48,12.40
2009,05,21,08,49,12.50
2009,05,21,08,50,12.50
2009,05,21,08,51,12.50
2009,05,21,08,52,12.40
2009,05,21,08,53,12.40
2009,05,21,08,54,12.40
2009,05,21,08,55,12.40
2009,05,21,08,56,12.40
2009,05,21,08,57,12.40
2009,05,21,08,58,12.40
2009,05,21,08,59,12.50
2009,05,21,09,00,12.60
2009,05,21,09,01,12.60
2009,05,21,09,02,12.60
2009,05,21,09,03,12.70
2009,05,21,09,04,12.70
2009,05,21,09,05,12.70
2009,05,21,09,06,12.70
2009,05,21,09,07,12.70
2009,05,21,09,08,12.60
2009,05,21,09,09,12.60
2009,05,21,09,10,12.60
2009,05,21,09,11,12.50
2009,05,21,09,12,12.50
2009,05,21,09,13,12.40
2009,05,21,09,14,12.40
2009,05,21,09,15,12.40
2009,05,21,09,16,12.50
2009,05,21,09,17,12.60
2009,05,21,09,18,12.60
2009,05,21,09,19,12.60
2009,05,21,09,20,12.60
2009,05,21,09,21,12.60
2009,05,21,09,22,12.60
2009,05,21,09,23,12.60
2009,05,21,09,24,12.60
2009,05,21,09,25,12.70
2009,05,21,09,26,12.70
2009,05,21,09,27,12.80
2009,05,21,09,28,12.80
2009,05,21,09,29,12.90
2009,05,21,09,30,12.90
2009,05,21,09,31,12.90
2009,05,21,09,32,12.90
2009,05,21,09,33,12.80
2009,05,21,09,34,12.70
2009,05,21,09,35,12.70
2009,05,21,09,36,12.70
2009,05,21,09,37,12.70
2009,05,21,09,38,12.70
2009,05,21,09,39,12.70
2009,05,21,09,40,12.80
2009,05,21,09,41,12.90
2009,05,21,09,42,13.00
2009,05,21,09,43,13.10
2009,05,21,09,44,13.20
2009,05,21,09,45,13.20
2009,05,21,09,46,13.20
2009,05,21,09,47,13.20
2009,05,21,09,48,13.20
2009,05,21,09,49,13.20
2009,05,21,09,50,13.20
2009,05,21,09,51,13.20
2009,05,21,09,52,13.30
2009,05,21,09,53,13.30
2009,05,21,09,54,13.30
2009,05,21,09,55,13.30
2009,05,21,09,56,13.20
2009,05,21,09,57,13.20
2009,05,21,09,58,13.20
2009,05,21,09,59,13.20
2009,05,21,10,00,13.20
2009,05,21,10,01,13.20
2009,05,21,10,02,13.20
2009,05,21,10,03,13.20
2009,05,21,10,04,13.30
2009,05,21,10,05,13.40
2009,05,21,10,06,13.40
2009,05,21,10,07,13.40
2009,05,21,10,08,13.40
2009,05,21,10,09,13.30
2009,05,21,10,10,13.30
2009,05,21,10,11,13.20
2009,05,21,10,12,13.20
2009,05,21,10,13,13.20
2009,05,21,10,14,13.30
2009,05,21,10,15,13.40
2009,05,21,10,16,13.40
2009,05,21,10,17,13.40
2009,05,21,10,18,13.40
2009,05,21,10,19,13.40
2009,05,21,10,20,13.40
2009,05,21,10,21,13.30
2009,05,21,10,22,13.20
2009,05,21,10,23,13.20
2009,05,21,10,24,13.10
2009,05,21,10,25,13.10
2009,05,21,10,26,13.10
2009,05,21,10,27,13.10
2009,05,21,10,28,13.10
2009,05,21,10,29,13.20
2009,05,21,10,30,13.20
2009,05,21,10,31,13.20
2009,05,21,10,32,13.30
2009,05,21,10,33,13.30
2009,05,21,10,34,13.30
2009,05,21,10,35,13.30
2009,05,21,10,36,13.30
2009,05,21,10,37,13.30
2009,05,21,10,38,13.40
2009,05,21,10,39,13.40
2009,05,21,10,40,13.50
2009,05,21,10,41,13.60
2009,05,21,10,42,13.70
2009,05,21,10,43,13.60
2009,05,21,10,44,13.60
2009,05,21,10,45,13.60
2009,05,21,10,46,13.70
2009,05,21,10,47,13.60
2009,05,21,10,48,13.70
2009,05,21,10,49,13.60
2009,05,21,10,50,13.60
2009,05,21,10,51,13.50
2009,05,21,10,52,13.60
2009,05,21,10,53,13.60
2009,05,21,10,54,13.50
2009,05,21,10,55,13.50
2009,05,21,10,56,13.50
2009,05,21,10,57,13.50
2009,05,21,10,58,13.40
2009,05,21,10,59,13.40
2009,05,21,11,00,13.30
2009,05,21,11,01,13.30
2009,05,21,11,02,13.20
2009,05,21,11,03,13.20
2009,05,21,11,04,13.20
2009,05,21,11,05,13.20
2009,05,21,11,06,13.20
2009,05,21,11,07,13.30
2009,05,21,11,08,13.30
2009,05,21,11,09,13.30
2009,05,21,11,10,13.30
2009,05,21,11,11,13.20
2009,05,21,11,12,13.20
2009,05,21,11,13,13.30
2009,05,21,11,14,13.30
2009,05,21,11,15,13.40
2009,05,21,11,16,13.40
2009,05,21,11,17,13.40
2009,05,21,11,18,13.40
2009,05,21,11,19,13.40
2009,05,21,11,20,13.40
2009,05,21,11,21,13.40
2009,05,21,11,22,13.40
2009,05,21,11,23,13.40
2009,05,21,11,24,13.40
2009,05,21,11,25,13.50
2009,05,21,11,26,13.50
2009,05,21,11,27,13.50
2009,05,21,11,28,13.40
2009,05,21,11,29,13.50
2009,05,21,11,30,13.50
2009,05,21,11,31,13.60
2009,05,21,11,32,13.60
2009,05,21,11,33,13.60
2009,05,21,11,34,13.60
2009,05,21,11,35,13.60
2009,05,21,11,36,13.60
2009,05,21,11,37,13.60
2009,05,21,11,38,13.60
2009,05,21,11,39,13.60
2009,05,21,11,40,13.60
2009,05,21,11,41,13.60
2009,05,21,11,42,13.60
2009,05,21,11,43,13.60
2009,05,21,11,44,13.70
2009,05,21,11,45,13.90
2009,05,21,11,46,14.00
2009,05,21,11,47,14.00
2009,05,21,11,48,14.00
2009,05,21,11,49,14.00
2009,05,21,11,50,13.90
2009,05,21,11,51,13.90
2009,05,21,11,52,13.90
2009,05,21,11,53,14.00
2009,05,21,11,54,14.00
2009,05,21,11,55,14.00
2009,05,21,11,56,14.00
2009,05,21,11,57,14.00
2009,05,21,11,58,14.00
2009,05,21,11,59,14.00
2009,05,21,12,00,14.00
2009,05,21,12,01,14.00
2009,05,21,12,02,14.00
2009,05,21,12,03,14.00
2009,05,21,12,04,14.00
2009,05,21,12,05,14.10
2009,05,21,12,06,14.20
2009,05,21,12,07,14.20
2009,05,21,12,08,14.20
2009,05,21,12,09,14.20
2009,05,21,12,10,14.20
2009,05,21,12,11,14.20
2009,05,21,12,12,14.20
2009,05,21,12,13,14.20
2009,05,21,12,14,14.20
2009,05,21,12,15,14.30
2009,05,21,12,16,14.30
2009,05,21,12,17,14.30
2009,05,21,12,18,14.40
2009,05,21,12,19,14.50
2009,05,21,12,20,14.50
2009,05,21,12,21,14.50
2009,05,21,12,22,14.40
2009,05,21,12,23,14.40
2009,05,21,12,24,14.40
2009,05,21,12,25,14.40
2009,05,21,12,26,14.30
2009,05,21,12,27,14.30
2009,05,21,12,28,14.40
2009,05,21,12,29,14.40
2009,05,21,12,30,14.50
2009,05,21,12,31,14.60
2009,05,21,12,32,14.60
2009,05,21,12,33,14.60
2009,05,21,12,34,14.70
2009,05,21,12,35,14.80
2009,05,21,12,36,14.90
2009,05,21,12,37,15.00
2009,05,21,12,38,15.00
2009,05,21,12,39,15.00
2009,05,21,12,40,15.00
2009,05,21,12,41,15.00
2009,05,21,12,42,15.00
2009,05,21,12,43,15.00
2009,05,21,12,44,15.00
2009,05,21,12,45,15.10
2009,05,21,12,46,15.20
2009,05,21,12,47,15.30
2009,05,21,12,48,15.30
2009,05,21,12,49,15.30
2009,05,21,12,50,15.30
2009,05,21,12,51,15.20
2009,05,21,12,52,15.20
2009,05,21,12,53,15.10
2009,05,21,12,54,15.00
2009,05,21,12,55,15.00
2009,05,21,12,56,15.00
2009,05,21,12,57,15.00
2009,05,21,12,58,15.00
2009,05,21,12,59,15.00
2009,05,21,13,00,15.00
2009,05,21,13,01,15.00
2009,05,21,13,02,15.00
2009,05,21,13,03,15.00
2009,05,21,13,04,15.10
2009,05,21,13,05,15.20
2009,05,21,13,06,15.20
2009,05,21,13,07,15.10
2009,05,21,13,08,15.10
2009,05,21,13,09,15.20
2009,05,21,13,10,15.20
2009,05,21,13,11,15.30
2009,05,21,13,12,15.30
2009,05,21,13,13,15.30
2009,05,21,13,14,15.30
2009,05,21,13,15,15.30
2009,05,21,13,16,15.30
2009,05,21,13,17,15.30
2009,05,21,13,18,15.30
2009,05,21,13,19,15.40
2009,05,21,13,20,15.50
2009,05,21,13,21,15.60
2009,05,21,13,22,15.60
2009,05,21,13,23,15.60
2009,05,21,13,24,15.60
2009,05,21,13,25,15.70
2009,05,21,13,26,15.60
2009,05,21,13,27,15.60
2009,05,21,13,28,15.50
2009,05,21,13,29,15.50
2009,05,21,13,30,15.60
2009,05,21,13,31,15.60
2009,05,21,13,32,15.60
2009,05,21,13,33,15.70
2009,05,21,13,34,15.80
2009,05,21,13,35,15.90
2009,05,21,13,36,15.90
2009,05,21,13,37,15.90
2009,05,21,13,38,15.80
2009,05,21,13,39,15.80
2009,05,21,13,40,15.80
2009,05,21,13,41,15.80
2009,05,21,13,42,15.80
2009,05,21,13,43,15.80
2009,05,21,13,44,15.80
2009,05,21,13,45,15.70
2009,05,21,13,46,15.60
2009,05,21,13,47,15.60
2009,05,21,13,48,15.60
2009,05,21,13,49,15.60
2009,05,21,13,50,15.60
2009,05,21,13,51,15.60
2009,05,21,13,52,15.70
2009,05,21,13,53,15.80
2009,05,21,13,54,15.80
2009,05,21,13,55,15.80
2009,05,21,13,56,15.90
2009,05,21,13,57,16.00
2009,05,21,13,58,16.10
2009,05,21,13,59,16.20
2009,05,21,14,00,16.20
2009,05,21,14,01,16.20
2009,05,21,14,02,16.20
2009,05,21,14,03,16.20
2009,05,21,14,04,16.20
2009,05,21,14,05,16.10
2009,05,21,14,06,16.10
2009,05,21,14,07,16.10
2009,05,21,14,08,16.10
2009,05,21,14,09,16.10
2009,05,21,14,10,16.10
2009,05,21,14,11,16.10
2009,05,21,14,12,16.10
2009,05,21,14,13,16.10
2009,05,21,14,14,16.00
2009,05,21,14,15,16.10
2009,05,21,14,16,16.10
2009,05,21,14,17,16.10
2009,05,21,14,18,16.10
2009,05,21,14,19,16.10
2009,05,21,14,20,16.10
2009,05,21,14,21,16.00
2009,05,21,14,22,16.00
2009,05,21,14,23,16.00
2009,05,21,14,24,16.00
2009,05,21,14,25,16.00
2009,05,21,14,26,16.00
2009,05,21,14,27,16.00
2009,05,21,14,28,16.00
2009,05,21,14,29,16.10
2009,05,21,14,30,16.10
2009,05,21,14,31,16.10
2009,05,21,14,32,16.10
2009,05,21,14,33,16.20
2009,05,21,14,34,16.20
2009,05,21,14,35,16.20
2009,05,21,14,36,16.30
2009,05,21,14,37,16.30
2009,05,21,14,38,16.30
2009,05,21,14,39,16.40
2009,05,21,14,40,16.50
2009,05,21,14,41,16.60
2009,05,21,14,42,16.70
2009,05,21,14,43,16.70
2009,05,21,14,44,16.70
2009,05,21,14,45,16.70
2009,05,21,14,46,16.70
2009,05,21,14,47,16.70
2009,05,21,14,48,16.60
2009,05,21,14,49,16.60
2009,05,21,14,50,16.60
2009,05,21,14,51,16.60
2009,05,21,14,52,16.60
2009,05,21,14,53,16.60
2009,05,21,14,54,16.60
2009,05,21,14,55,16.50
2009,05,21,14,56,16.50
2009,05,21,14,57,16.50
2009,05,21,14,58,16.50
2009,05,21,14,59,16.60
2009,05,21,15,00,16.70
2009,05,21,15,01,16.80
2009,05,21,15,02,16.80
2009,05,21,15,03,16.80
2009,05,21,15,04,16.80
2009,05,21,15,05,16.80
2009,05,21,15,06,16.80
2009,05,21,15,07,16.80
2009,05,21,15,08,16.70
2009,05,21,15,09,16.80
2009,05,21,15,10,16.80
2009,05,21,15,11,16.80
2009,05,21,15,12,16.70
2009,05,21,15,13,16.70
2009,05,21,15,14,16.70
2009,05,21,15,15,16.70
2009,05,21,15,16,16.70
2009,05,21,15,17,16.70
2009,05,21,15,18,16.70
2009,05,21,15,19,16.80
2009,05,21,15,20,16.80
2009,05,21,15,21,16.80
2009,05,21,15,22,16.80
2009,05,21,15,23,16.80
2009,05,21,15,24,16.80
2009,05,21,15,25,16.90
2009,05,21,15,26,16.90
2009,05,21,15,27,16.90
2009,05,21,15,28,16.80
2009,05,21,15,29,16.80
2009,05,21,15,30,16.90
2009,05,21,15,31,17.00
2009,05,21,15,32,17.10
2009,05,21,15,33,17.20
2009,05,21,15,34,17.30
2009,05,21,15,35,17.30
2009,05,21,15,36,17.30
2009,05,21,15,37,17.30
2009,05,21,15,38,17.30
2009,05,21,15,39,17.20
2009,05,21,15,40,17.10
2009,05,21,15,41,17.00
2009,05,21,15,42,17.00
2009,05,21,15,43,17.10
2009,05,21,15,44,17.10
2009,05,21,15,45,17.20
2009,05,21,15,46,17.20
2009,05,21,15,47,17.20
2009,05,21,15,48,17.30
2009,05,21,15,49,17.20
2009,05,21,15,50,17.10
2009,05,21,15,51,17.10
2009,05,21,15,52,17.10
2009,05,21,15,53,17.10
2009,05,21,15,54,17.10
2009,05,21,15,55,17.20
2009,05,21,15,56,17.20
2009,05,21,15,57,17.20
2009,05,21,15,58,17.20
2009,05,21,15,59,17.20
2009,05,21,16,00,17.20
2009,05,21,16,01,17.30
2009,05,21,16,02,17.30
2009,05,21,16,03,17.30
2009,05,21,16,04,17.30
2009,05,21,16,05,17.30
2009,05,21,16,06,17.30
2009,05,21,16,07,17.30
2009,05,21,16,08,17.30
2009,05,21,16,09,17.40
2009,05,21,16,10,17.40
2009,05,21,16,11,17.40
2009,05,21,16,12,17.50
2009,05,21,16,13,17.50
2009,05,21,16,14,17.50
2009,05,21,16,15,17.50
2009,05,21,16,16,17.50
2009,05,21,16,17,17.50
2009,05,21,16,18,17.40
2009,05,21,16,19,17.40
2009,05,21,16,20,17.30
2009,05,21,16,21,17.30
2009,05,21,16,22,17.30
2009,05,21,16,23,17.30
2009,05,21,16,24,17.30
2009,05,21,16,25,17.30
2009,05,21,16,26,17.30
2009,05,21,16,27,17.40
2009,05,21,16,28,17.40
2009,05,21,16,29,17.40
2009,05,21,16,30,17.40
2009,05,21,16,31,17.50
2009,05,21,16,32,17.60
2009,05,21,16,33,17.60
2009,05,21,16,34,17.60
2009,05,21,16,35,17.60
2009,05,21,16,36,17.60
2009,05,21,16,37,17.60
2009,05,21,16,38,17.60
2009,05,21,16,39,17.60
2009,05,21,16,40,17.60
2009,05,21,16,41,17.70
2009,05,21,16,42,17.80
2009,05,21,16,43,17.90
2009,05,21,16,44,18.00
2009,05,21,16,45,18.00
2009,05,21,16,46,18.00
2009,05,21,16,47,17.90
2009,05,21,16,48,17.90
2009,05,21,16,49,17.80
2009,05,21,16,50,17.80
2009,05,21,16,51,17.80
2009,05,21,16,52,17.80
2009,05,21,16,53,17.70
2009,05,21,16,54,17.70
2009,05,21,16,55,17.80
2009,05,21,16,56,17.80
2009,05,21,16,57,17.80
2009,05,21,16,58,17.80
2009,05,21,16,59,17.80
2009,05,21,17,00,17.80
2009,05,21,17,01,17.80
2009,05,21,17,02,17.90
2009,05,21,17,03,17.90
2009,05,21,17,04,17.80
2009,05,21,17,05,17.80
2009,05,21,17,06,17.90
2009,05,21,17,07,17.90
2009,05,21,17,08,17.80
2009,05,21,17,09,17.80
2009,05,21,17,10,17.70
2009,05,21,17,11,17.60
2009,05,21,17,12,17.40
2009,05,21,17,13,17.10
2009,05,21,17,14,16.90
2009,05,21,17,15,16.70
2009,05,21,17,16,16.60
2009,05,21,17,17,16.60
2009,05,21,17,18,16.60
2009,05,21,17,19,16.50
2009,05,21,17,20,16.50
2009,05,21,17,21,16.50
2009,05,21,17,22,16.60
2009,05,21,17,23,16.50
2009,05,21,17,24,16.40
2009,05,21,17,25,16.40
2009,05,21,17,26,16.30
2009,05,21,17,27,16.30
2009,05,21,17,28,16.30
2009,05,21,17,29,16.30
2009,05,21,17,30,16.40
2009,05,21,17,31,16.30
2009,05,21,17,32,16.30
2009,05,21,17,33,16.30
2009,05,21,17,34,16.40
2009,05,21,17,35,16.40
2009,05,21,17,36,16.40
2009,05,21,17,37,16.40
2009,05,21,17,38,16.40